Location: Amon Carter Post Office
(32.8281°N, 97.0484°W)
Time: 12:24:24
(UTC+00:00)

Sich 1 - Pass Details

Date: 10 July 2022
Orbit: 593 x 622 km, 82.5° (Epoch: 10 August)

Event Time Altitude Azimuth Distance (km) Brightness Sun altitude
Exits shadow 08:50:35 56° 82° (E) 712 3.4 -26.0°
Drops below altitude 10° 08:54:36 10° 16° (NNE) 1,935 6.5 -25.5°
Sets 08:56:50 0° 12° (NNE) 2,838 7.5 -25.2°
